When you browse on this site, cookies collect data to enhance your experience and personalize the content and advertising you see.
Visit our Privacy Policy to learn more. By continuing to use the site, you agree to this use of cookies and data.
  • In Österreich
  • Länderverzeichnis
  • Für 7 Tage
  • Wassertemperatur
  • Satellitenkarten
  • Wetterkarte
  • News
  • Widgets
  • user-avatar
    Anmelden

    Stündliche Wetter Rohachyn

    Heute, 21 Februar, Donnerstag

    Zeit Temperatur Niederschläge Wind Luftdruck Luftfeuchtigkeit
    00:00 +1°C° 0 mm 5 m/S 736 mmHg 80%
    01:00 0°C° 0 mm 5 m/S 736 mmHg 81%
    02:00 0°C° 0 mm 4 m/S 736 mmHg 84%
    03:00 0°C° 0 mm 4 m/S 736 mmHg 85%
    04:00 0°C° 0 mm 5 m/S 737 mmHg 85%
    05:00 0°C° 0 mm 5 m/S 737 mmHg 86%
    06:00 0°C° 0 mm 5 m/S 737 mmHg 87%
    07:00 0°C° 0 mm 5 m/S 737 mmHg 87%
    08:00 0°C° 0 mm 5 m/S 737 mmHg 88%
    09:00 +1°C° 0 mm 6 m/S 737 mmHg 86%
    10:00 +1°C° 0 mm 6 m/S 737 mmHg 84%
    11:00 +2°C° 0 mm 6 m/S 738 mmHg 82%
    12:00 +2°C° 0 mm 6 m/S 737 mmHg 82%
    13:00 +2°C° 0 mm 6 m/S 737 mmHg 81%
    14:00 +2°C° 0 mm 6 m/S 737 mmHg 82%
    15:00 +3°C° 0.1 mm 6 m/S 737 mmHg 82%
    16:00 +3°C° 0.1 mm 5 m/S 736 mmHg 83%
    17:00 +3°C° 0.1 mm 5 m/S 736 mmHg 83%
    18:00 +3°C° 0.2 mm 5 m/S 736 mmHg 83%
    19:00 +3°C° 0.2 mm 5 m/S 736 mmHg 83%
    20:00 +2°C° 0.2 mm 5 m/S 735 mmHg 83%
    21:00 +2°C° 0.4 mm 5 m/S 735 mmHg 84%
    22:00 +2°C° 0.4 mm 5 m/S 735 mmHg 84%
    23:00 +2°C° 0.4 mm 5 m/S 735 mmHg 85%

    Morgen, 22 Februar, Freitag

    Zeit Temperatur Niederschläge Wind Luftdruck Luftfeuchtigkeit
    00:00 +2°C° 0.8 mm 5 m/S 735 mmHg 87%
    01:00 +2°C° 0.8 mm 5 m/S 734 mmHg 90%
    02:00 +3°C° 0.8 mm 4 m/S 734 mmHg 93%
    03:00 0°C° 0.8 mm 5 m/S 734 mmHg 92%
    04:00 -1°C° 0.8 mm 5 m/S 734 mmHg 92%
    05:00 -2°C° 0.8 mm 5 m/S 734 mmHg 92%
    06:00 -4°C° 0.6 mm 6 m/S 735 mmHg 91%
    07:00 -5°C° 0.6 mm 6 m/S 735 mmHg 89%
    08:00 -7°C° 0.6 mm 7 m/S 736 mmHg 87%
    09:00 -7°C° 0.3 mm 7 m/S 737 mmHg 82%
    10:00 -7°C° 0.3 mm 7 m/S 738 mmHg 77%
    11:00 -6°C° 0.3 mm 6 m/S 739 mmHg 72%
    12:00 -6°C° 0 mm 6 m/S 740 mmHg 70%
    13:00 -8°C° 0 mm 7 m/S 741 mmHg 68%
    14:00 -8°C° 0 mm 7 m/S 741 mmHg 65%
    15:00 -8°C° 0 mm 7 m/S 742 mmHg 64%
    16:00 -8°C° 0 mm 6 m/S 742 mmHg 63%
    17:00 -9°C° 0 mm 6 m/S 743 mmHg 62%
    18:00 -9°C° 0 mm 6 m/S 743 mmHg 63%
    19:00 -10°C° 0 mm 5 m/S 744 mmHg 64%
    20:00 -10°C° 0 mm 5 m/S 745 mmHg 66%
    21:00 -10°C° 0 mm 5 m/S 745 mmHg 66%
    22:00 -10°C° 0 mm 5 m/S 746 mmHg 66%
    23:00 -10°C° 0 mm 5 m/S 746 mmHg 67%

    übermorgen, 23 Februar, Samstag

    Zeit Temperatur Niederschläge Wind Luftdruck Luftfeuchtigkeit
    00:00 -10°C° 0 mm 5 m/S 747 mmHg 67%
    01:00 -10°C° 0 mm 5 m/S 747 mmHg 66%
    02:00 -10°C° 0 mm 5 m/S 747 mmHg 66%
    03:00 -10°C° 0 mm 5 m/S 748 mmHg 68%
    04:00 -10°C° 0 mm 5 m/S 748 mmHg 69%
    05:00 -11°C° 0 mm 5 m/S 748 mmHg 70%
    06:00 -11°C° 0 mm 5 m/S 748 mmHg 71%
    07:00 -11°C° 0 mm 5 m/S 749 mmHg 72%
    08:00 -11°C° 0 mm 5 m/S 749 mmHg 73%
    09:00 -10°C° 0 mm 5 m/S 749 mmHg 70%
    10:00 -9°C° 0 mm 4 m/S 749 mmHg 67%
    11:00 -9°C° 0 mm 4 m/S 750 mmHg 65%
    12:00 -8°C° 0 mm 4 m/S 750 mmHg 64%
    13:00 -8°C° 0 mm 4 m/S 750 mmHg 63%
    14:00 -7°C° 0 mm 4 m/S 750 mmHg 62%
    15:00 -8°C° 0 mm 4 m/S 750 mmHg 64%
    16:00 -8°C° 0 mm 4 m/S 749 mmHg 65%
    17:00 -7°C° 0 mm 3 m/S 749 mmHg 66%
    18:00 -7°C° 0 mm 3 m/S 749 mmHg 70%
    19:00 -8°C° 0 mm 3 m/S 750 mmHg 74%
    20:00 -7°C° 0 mm 2 m/S 750 mmHg 78%
    21:00 -7°C° 0 mm 2 m/S 750 mmHg 78%
    22:00 -7°C° 0 mm 2 m/S 750 mmHg 79%
    23:00 -7°C° 0 mm 1 m/S 750 mmHg 79%

    24 Februar, Sonntag

    Zeit Temperatur Niederschläge Wind Luftdruck Luftfeuchtigkeit
    00:00 -7°C° 0 mm 1 m/S 750 mmHg 79%
    01:00 -7°C° 0 mm 1 m/S 750 mmHg 79%
    02:00 -7°C° 0 mm 1 m/S 750 mmHg 79%
    03:00 -7°C° 0 mm 1 m/S 750 mmHg 79%
    04:00 -8°C° 0 mm 2 m/S 749 mmHg 79%
    05:00 -8°C° 0 mm 2 m/S 749 mmHg 79%
    06:00 -8°C° 0 mm 2 m/S 749 mmHg 78%
    07:00 -8°C° 0 mm 2 m/S 749 mmHg 78%
    08:00 -8°C° 0 mm 2 m/S 749 mmHg 77%
    09:00 -7°C° 0 mm 2 m/S 749 mmHg 70%
    10:00 -5°C° 0 mm 2 m/S 749 mmHg 63%
    11:00 -4°C° 0 mm 2 m/S 749 mmHg 56%
    12:00 -3°C° 0 mm 2 m/S 749 mmHg 53%
    13:00 -2°C° 0 mm 2 m/S 749 mmHg 49%
    14:00 -2°C° 0 mm 2 m/S 749 mmHg 45%
    15:00 -2°C° 0 mm 2 m/S 748 mmHg 48%
    16:00 -2°C° 0 mm 2 m/S 748 mmHg 52%
    17:00 -2°C° 0 mm 2 m/S 748 mmHg 55%
    18:00 -3°C° 0 mm 2 m/S 748 mmHg 56%
    19:00 -3°C° 0 mm 2 m/S 748 mmHg 58%
    20:00 -4°C° 0 mm 2 m/S 748 mmHg 60%
    21:00 -4°C° 0 mm 2 m/S 748 mmHg 60%
    22:00 -4°C° 0 mm 2 m/S 748 mmHg 61%
    23:00 -4°C° 0 mm 2 m/S 749 mmHg 61%

    25 Februar, Montag

    Zeit Temperatur Niederschläge Wind Luftdruck Luftfeuchtigkeit
    00:00 -4°C° 0 mm 2 m/S 748 mmHg 62%
    01:00 -4°C° 0 mm 2 m/S 748 mmHg 64%
    02:00 -4°C° 0 mm 2 m/S 748 mmHg 65%
    03:00 -5°C° 0 mm 3 m/S 748 mmHg 67%
    04:00 -5°C° 0 mm 3 m/S 748 mmHg 69%
    05:00 -5°C° 0 mm 3 m/S 747 mmHg 71%
    06:00 -5°C° 0 mm 3 m/S 747 mmHg 71%
    07:00 -5°C° 0 mm 3 m/S 747 mmHg 71%
    08:00 -4°C° 0 mm 4 m/S 747 mmHg 71%
    09:00 -4°C° 0 mm 5 m/S 747 mmHg 68%
    10:00 -1°C° 0 mm 5 m/S 747 mmHg 66%
    11:00 -1°C° 0 mm 6 m/S 747 mmHg 63%
    12:00 +1°C° 0 mm 6 m/S 747 mmHg 63%
    13:00 +2°C° 0 mm 6 m/S 746 mmHg 63%
    14:00 +2°C° 0 mm 6 m/S 746 mmHg 64%
    15:00 +2°C° 0 mm 6 m/S 746 mmHg 69%
    16:00 +1°C° 0 mm 6 m/S 745 mmHg 75%
    17:00 +1°C° 0 mm 5 m/S 745 mmHg 81%
    18:00 0°C° 0 mm 5 m/S 745 mmHg 85%
    19:00 0°C° 0 mm 4 m/S 745 mmHg 89%
    20:00 -1°C° 0 mm 4 m/S 745 mmHg 94%
    21:00 -1°C° 0 mm 4 m/S 745 mmHg 94%
    22:00 -1°C° 0 mm 4 m/S 745 mmHg 95%
    23:00 -1°C° 0 mm 4 m/S 744 mmHg 95%

    26 Februar, Dienstag

    Zeit Temperatur Niederschläge Wind Luftdruck Luftfeuchtigkeit
    00:00 -1°C° 0 mm 4 m/S 744 mmHg 95%
    01:00 -1°C° 0 mm 5 m/S 744 mmHg 95%
    02:00 -1°C° 0 mm 5 m/S 743 mmHg 94%
    03:00 -1°C° 0 mm 5 m/S 743 mmHg 94%
    04:00 -1°C° 0 mm 5 m/S 742 mmHg 94%
    05:00 -1°C° 0 mm 5 m/S 741 mmHg 95%
    06:00 -2°C° 0 mm 6 m/S 741 mmHg 94%
    07:00 -2°C° 0 mm 6 m/S 740 mmHg 94%
    08:00 -1°C° 0 mm 6 m/S 740 mmHg 94%
    09:00 -1°C° 0 mm 7 m/S 739 mmHg 91%
    10:00 -1°C° 0 mm 7 m/S 739 mmHg 89%
    11:00 -1°C° 0 mm 7 m/S 739 mmHg 86%
    12:00 0°C° 0 mm 7 m/S 738 mmHg 83%
    13:00 +2°C° 0 mm 7 m/S 738 mmHg 79%
    14:00 +3°C° 0 mm 7 m/S 737 mmHg 76%
    15:00 +3°C° 0 mm 6 m/S 737 mmHg 78%
    16:00 +2°C° 0 mm 5 m/S 737 mmHg 81%
    17:00 +2°C° 0 mm 5 m/S 736 mmHg 83%
    18:00 +1°C° 0 mm 5 m/S 736 mmHg 85%
    19:00 0°C° 0 mm 5 m/S 736 mmHg 87%
    20:00 0°C° 0 mm 5 m/S 736 mmHg 89%
    21:00 0°C° 0 mm 5 m/S 735 mmHg 90%
    22:00 -2°C° 0 mm 6 m/S 735 mmHg 90%
    23:00 -2°C° 0 mm 6 m/S 734 mmHg 91%
    Mehr zeigen